This is the latest recevied weather packets stored in our database for station/object W1LBM. If no packets are shown the sender has not sent any weather packets the latest 10 day(s).
| Time | Temp. | Humidity | Pressure | Rain* | Wind** | Luminosity | Snow |
|---|---|---|---|---|---|---|---|
| 1777500971 | 11.67° C | 77% | 1015.1 hPa | 0 mm | - | 50 W/m² | - |
| 1777500668 | 11.67° C | 77% | 1015 hPa | 0 mm | - | 51 W/m² | - |
| 1777500364 | 11.67° C | 76% | 1015.4 hPa | 0 mm | - | 58 W/m² | - |
| 1777500060 | 12.22° C | 75% | 1015.5 hPa | 0 mm | - | 68 W/m² | - |
| 1777499757 | 12.78° C | 74% | 1015.6 hPa | 0 mm | - | 81 W/m² | - |
| 1777499454 | 12.78° C | 74% | 1015.6 hPa | 0 mm | - | 94 W/m² | - |
| 1777499152 | 12.78° C | 74% | 1015.7 hPa | 0 mm | - | 116 W/m² | - |
| 1777498849 | 12.78° C | 73% | 1016 hPa | 0 mm | - | 99 W/m² | - |
| 1777498545 | 12.78° C | 73% | 1015.7 hPa | 0 mm | - | 121 W/m² | - |
| 1777498241 | 13.33° C | 72% | 1015.9 hPa | 0 mm | - | 118 W/m² | - |
| 1777497940 | 13.33° C | 72% | 1015.8 hPa | 0 mm | - | 144 W/m² | - |
| 1777497635 | 13.33° C | 71% | 1015.9 hPa | 0 mm | - | 176 W/m² | - |
| 1777497332 | 13.33° C | 71% | 1015.9 hPa | 0 mm | - | 159 W/m² | - |
| 1777497028 | 13.33° C | 71% | 1015.9 hPa | 0 mm | - | 157 W/m² | - |
| 1777496725 | 13.33° C | 71% | 1015.9 hPa | 0 mm | - | 136 W/m² | - |
| 1777496422 | 13.33° C | 71% | 1015.7 hPa | 0 mm | - | 131 W/m² | - |
| 1777496118 | 13.89° C | 70% | 1015.7 hPa | 0 mm | - | 146 W/m² | - |
| 1777495814 | 13.89° C | 70% | 1015.6 hPa | 0 mm | - | 148 W/m² | - |
| 1777495510 | 13.89° C | 69% | 1015.8 hPa | 0 mm | - | 153 W/m² | - |
| 1777495206 | 13.89° C | 68% | 1015.5 hPa | 0 mm | - | 171 W/m² | - |
| 1777494904 | 13.89° C | 68% | 1015.4 hPa | 0 mm | - | 176 W/m² | - |
| 1777494601 | 13.89° C | 68% | 1015.4 hPa | 0 mm | - | 174 W/m² | - |
| 1777494298 | 13.89° C | 67% | 1015.5 hPa | 0 mm | - | 191 W/m² | - |
| 1777493994 | 14.44° C | 67% | 1015.5 hPa | 0 mm | - | 191 W/m² | - |
| 1777493693 | 14.44° C | 67% | 1015.5 hPa | 0 mm | - | 173 W/m² | - |
* Rain latest hour (hover to see other rain measurements)
** Current wind speed in m/s (hover to see current wind gust speed)